Regional Weather Roundup
Issued by NWS

Home | Current Version | Previous Version | Graphics & Text | Print | Product List | Glossary On
Versions: 1 2 3 4 5 6 7 8 9 10 11 12 13 14 15 16 17 18 19 20 21 22 23 24 25 26 27 28 29 30 31 32 33 34 35 36 37 38 39 40 41 42 43 44 45 46 47 48 49 50
000
ASUS43 KTOP 271108
RWRKS

WEATHER ROUNDUP FOR KANSAS
NATIONAL WEATHER SERVICE GOODLAND KS
600 AM CDT WED MAY 27 2015

NOTE:  "FAIR" INDICATES FEW OR NO CLOUDS BELOW 12,000 FEET WITH NO
SIGNIFICANT WEATHER AND/OR OBSTRUCTIONS TO VISIBILITY.

KSZ001>006-013>018-027>032-041>047-271200-
NORTHWEST KANSAS

CITY           SKY/WX    TMP DP  RH WIND       PRES   REMARKS
GOODLAND       CLOUDY    53  51  93 SE10      30.06S
HAYS           MOCLDY    54  45  71 CALM      30.07R
HILL CITY      CLOUDY    52  50  93 W3        30.07R
RUSSELL        PTCLDY    53  52  96 S6        30.05R
$$

KSZ061>065-074>080-084>089-271200-
SOUTHWEST KANSAS

CITY           SKY/WX    TMP DP  RH WIND       PRES   REMARKS
DODGE CITY     LGT RAIN  59  56  89 S6        30.07S
ELKHART          N/A     57  50  78 S12         N/A
GARDEN CITY    CLOUDY    57  56  96 E7        30.04F
GREAT BEND     PTCLDY    57  52  82 CALM      30.06S
LIBERAL        CLOUDY    61  55  82 SE6       30.07S
PRATT          MOCLDY    59  57  94 E5        30.07S
$$

KSZ066>073-081>083-090>101-271200-
SOUTHEAST KANSAS

CITY           SKY/WX    TMP DP  RH WIND       PRES   REMARKS
CHANUTE        MOCLDY    62  61  96 S9        30.05R
COFFEYVILLE    PTCLDY    61  61 100 CALM      30.04R
HUTCHINSON     PTCLDY    62  53  72 NE7       30.06R
MEDICINE LODGE   N/A     57  56  96 N3        30.03S
NEWTON         CLEAR     59  52  77 N5        30.08R
PARSONS        CLEAR     62  62 100 N3        30.06R
WICHITA INTL   PTCLDY    61  59  93 N6        30.04R
WICHITA JABRA  CLEAR     59  58  96 N7        30.04R
WICHITA MCCONL CLEAR     61  60  96 N6        30.05R
WINFIELD       CLEAR     59  58  96 S3        30.07R
$$

KSZ007>012-019>026-033>040-048>060-102>105-271200-
NORTHEAST KANSAS

CITY           SKY/WX    TMP DP  RH WIND       PRES   REMARKS
CONCORDIA      PTCLDY    53  50  89 SW7       30.05R
EMPORIA        CLEAR     57  55  93 CALM      30.05R
LAWRENCE       PTCLDY    57  55  93 CALM      30.04R
MANHATTAN      CLEAR     52  52 100 CALM      30.05R
MARYSVILLE     CLEAR     50  50 100 CALM      30.04R
OLATHE IND     CLEAR     60  56  86 W3        30.04R
OLATHE EXE     CLEAR     61  57  87 W3        30.03R
SALINA         CLEAR     57  54  89 SW5       30.06R
TOPEKA BILLARD CLEAR     57  56  96 CALM      30.04R
TOPEKA FORBES  PTCLDY    58  55  90 NW3       30.03S
$$


USA.gov is the U.S. government's official web portal to all federal, state and local government web resources and services.